Cloud_Cover
100 100 100 100 100 100 100 100 100 16 3 34 100 100 100 5 26 5 5 5 47 98 5 5 73 100 81 7 26 62 77 100 100 100 100 100 100 100 100 100 93 60 96 100
92 100 100 100 100 98 37 74 100 26 0 6 13 100 100 42 90 99 83 73 25 7 13 85 100 100 100 100 100 99 100 100 98 100 100 100 100 100 100 100 100 100 85 99
100 100 100 100 100 99 96 97 100 20 4 5 5 86 100 82 64 99 100 29 46 94 100 74 100 100 100 100 100 100 100 100 76 78 100 100 100 100 100 100 100 100 100 98
99 100 100 100 100 83 27 91 56 100 58 4 5 85 100 99 90 100 99 97 100 100 100 99 89 95 96 100 100 100 100 100 100 100 100 100 100 100 100 100 100 100 100 100
100 100 100 100 100 100 100 100 44 87 16 5 55 5 100 100 90 98 100 100 100 100 96 100 100 100 100 100 100 100 100 100 100 100 100 100 100 100 100 100 100 100 100 100
100 100 100 100 100 100 86 60 45 88 76 25 100 68 98 80 100 100 100 100 100 100 100 100 100 100 100 100 100 100 100 100 100 100 99 95 100 100 100 100 100 100 100 100
100 100 100 100 100 100 100 100 61 65 36 21 44 9 100 100 100 100 100 100 100 100 100 100 100 100 100 100 100 100 100 100 100 100 88 51 99 100 100 100 100 100 100 100
100 100 100 100 100 100 100 100 100 100 28 5 47 58 100 100 100 100 100 100 100 100 100 100 100 100 100 100 100 100 100 100 100 100 100 100 100 94 100 96 78 100 100 100
99 100 100 100 100 100 100 91 100 100 84 64 52 69 100 100 100 100 100 98 100 100 100 99 100 100 100 100 100 100 100 100 100 100 100 96 99 74 100 100 100 100 100 100
87 98 100 100 100 100 100 84 100 100 100 85 22 85 82 79 92 100 100 100 100 100 66 51 100 100 100 100 97 99 95 95 100 100 100 100 100 100 100 100 100 100 100 100
100 96 53 53 99 100 100 52 88 100 97 86 15 8 100 98 100 100 100 100 100 85 92 100 100 100 100 100 94 89 100 100 100 100 100 100 100 100 100 100 100 100 100 100
100 100 100 100 100 100 97 82 100 100 100 99 65 74 100 100 100 100 100 100 100 100 99 96 100 100 100 100 100 100 100 100 100 100 100 100 100 100 96 100 100 100 100 100
100 100 100 98 100 100 100 100 100 100 100 100 100 97 100 98 99 93 100 100 74 92 100 99 100 100 63 95 100 100 100 100 32 8 12 34 72 100 100 100 100 100 100 100
100 100 94 86 87 94 31 69 93 100 99 100 66 98 100 100 100 61 91 100 72 9 87 100 100 78 100 100 96 75 39 6 15 10 59 97 100 93 91 81 84 78 100 100
100 100 98 100 100 48 31 79 96 100 100 100 100 95 100 100 99 97 91 100 100 100 100 100 100 100 100 81 6 5 5 5 5 33 99 100 100 100 100 100 100 100 100 100
100 100 100 100 100 85 38 5 79 100 100 100 83 10 100 100 86 58 6 23 80 100 100 4 0 82 60 5 4 5 5 1 21 98 100 100 100 100 100 98 100 100 100 100
100 100 100 100 100 96 52 100 100 100 100 100 83 98 100 100 90 47 45 4 5 5 8 4 0 0 1 4 0 1 2 23 92 100 100 100 100 100 100 100 100 100 100 100
100 100 100 100 95 100 96 100 100 97 81 79 100 100 100 5 7 100 100 100 19 5 46 5 5 5 4 4 0 40 55 97 100 100 100 100 100 100 100 100 100 100 100 100
100 100 100 100 100 100 97 99 96 26 100 100 100 55 89 100 89 67 100 49 97 98 16 5 4 1 0 0 35 26 100 100 100 100 100 100 100 100 100 100 100 100 100 100
100 100 100 100 88 100 93 100 100 100 96 100 100 94 98 26 5 37 94 99 96 28 5 2 4 0 0 1 72 45 100 100 100 100 100 100 100 100 100 100 100 92 100 100
100 100 100 100 76 100 100 69 34 43 89 100 92 9 5 5 4 5 29 5 5 5 4 0 0 0 0 36 72 93 98 98 100 100 100 100 100 100 100 100 100 100 100 100
100 100 100 100 94 95 97 95 53 18 10 5 5 9 7 1 1 1 2 2 4 0 0 0 0 0 0 17 100 100 100 95 100 100 100 100 100 100 100 100 100 100 100 100
100 40 45 100 78 48 10 36 24 5 5 5 5 5 1 5 0 0 2 0 0 0 0 0 0 0 27 94 100 100 100 100 100 100 100 100 100 100 100 100 100 100 100 100
100 98 42 77 100 88 77 91 56 5 44 82 10 4 0 0 0 0 0 1 4 14 0 4 0 0 0 12 95 100 100 100 100 100 100 100 100 100 100 100 100 100 100 100
100 100 100 100 100 97 12 5 2 5 5 5 3 1 5 1 0 0 0 0 72 67 44 4 1 0 0 86 100 100 100 100 100 100 100 100 100 100 100 100 100 100 100 89
90 100 100 100 96 13 51 17 5 6 5 5 0 0 0 0 0 0 0 0 0 22 100 93 50 1 0 100 100 100 100 100 100 100 100 100 100 100 100 100 100 100 99 42